Weather History for Aurora, NE

Change the Weather History Date:

Saturday, April 13, 2013

  Actual Average Record
Temperature  
Mean Temperature 46 °F -  
Max Temperature 63 °F 61 °F 89 °F (2006)
Min Temperature 29 °F 37 °F 17 °F (1997)
Degree Days  
Heating Degree Days 19    
Moisture  
Dew Point 38 °F    
Average Humidity 77    
Maximum Humidity 100    
Minimum Humidity 47    
Precipitation  
Precipitation 0.25 in - - ()
Sea Level Pressure  
Sea Level Pressure 29.81 in    
Wind  
Wind Speed 6 mph (SSE)    
Max Wind Speed 20 mph    
Max Gust Speed 28 mph    
Visibility 10 miles    
Events Rain , Thunderstorm    
Averages and records for this station are not official NWS values.
T = Trace of Precipitation, MM = Missing Value Source: NWS Daily Summary

Daily Weather History Graph

Daily Weather History Graph

Search for Another Location

Airport:

Trip Planner

Search our weather history database for the weather conditions in past years. The results will help you decide how hot, cold, wet, or windy it might be!

Date:

Astronomy

Apr. 13, 2013 Rise Set
Actual Time 6:55 AM CDT 8:09 PM CDT
Civil Twilight 6:27 AM CDT 8:38 PM CDT
Nautical Twilight 5:53 AM CDT 9:12 PM CDT
Astronomical Twilight 5:17 AM CDT 9:48 PM CDT
Moon 8:47 AM CDT (4/13) 11:36 PM CDT (4/13)
Length of Visible Light 14h 10m
Length of Day
13h 14m
Waxing Crescent, 10% of the Moon is Illuminated
Apr 13
Waxing Crescent
Apr 18
First Quarter
Apr 25
Full
May 2
Last Quarter
May 9
New

Hourly Weather History & Observations

Time (CDT) Temp. Windchill Dew Point Humidity Pressure Visibility Wind Dir Wind Speed Gust Speed Precip Events Conditions
12:15 AM 32.9 °F 29.8 °F 31.6 °F 95% 30.01 in 10.0 mi ENE 3.5 mph - N/A   Clear
12:35 AM 33.4 °F - 32.0 °F 94% 30.01 in 10.0 mi Calm Calm - N/A   Clear
12:55 AM 33.8 °F - 32.0 °F 93% 30.01 in 10.0 mi Calm Calm - N/A   Clear
1:15 AM 33.6 °F - 32.0 °F 94% 30.01 in 10.0 mi Calm Calm - N/A   Clear
1:35 AM 31.8 °F - 30.4 °F 94% 30.01 in 10.0 mi Calm Calm - N/A   Clear
1:55 AM 31.3 °F - 31.1 °F 99% 30.01 in 10.0 mi Calm Calm - N/A   Clear
2:15 AM 29.1 °F - 28.6 °F 98% 30.02 in 10.0 mi Calm Calm - N/A   Clear
2:35 AM 30.6 °F - 30.6 °F 100% 30.02 in 10.0 mi Calm Calm - N/A   Clear
2:55 AM 30.7 °F - 30.7 °F 100% 30.01 in 10.0 mi Calm Calm - N/A   Scattered Clouds
3:15 AM 30.0 °F - 30.0 °F 100% 30.01 in 10.0 mi Calm Calm - N/A   Clear
3:35 AM 30.6 °F - 30.6 °F 100% 29.99 in 10.0 mi Calm Calm - N/A   Clear
3:55 AM 29.7 °F - 29.7 °F 100% 29.99 in 10.0 mi Calm Calm - N/A   Clear
4:15 AM 29.5 °F - 29.5 °F 100% 29.98 in 10.0 mi Calm Calm - N/A   Clear
4:35 AM 30.7 °F 27.3 °F 30.7 °F 100% 29.98 in 10.0 mi South 3.5 mph - N/A   Clear
4:55 AM 31.1 °F - 31.1 °F 100% 29.97 in 10.0 mi Calm Calm - N/A   Scattered Clouds
5:15 AM 30.9 °F 25.2 °F 30.6 °F 99% 29.97 in 10.0 mi South 5.8 mph - N/A   Scattered Clouds
5:35 AM 31.1 °F - 30.0 °F 96% 29.97 in 10.0 mi Calm Calm - N/A   Scattered Clouds
5:55 AM 31.5 °F 25.8 °F 30.7 °F 97% 29.98 in 10.0 mi South 5.8 mph - N/A   Scattered Clouds
6:15 AM 31.6 °F 28.3 °F 30.2 °F 94% 29.97 in 10.0 mi South 3.5 mph - N/A   Scattered Clouds
6:35 AM 31.8 °F 28.5 °F 30.7 °F 96% 29.97 in 10.0 mi South 3.5 mph - N/A   Scattered Clouds
6:55 AM 32.0 °F 28.7 °F 31.1 °F 96% 29.97 in 10.0 mi South 3.5 mph - N/A   Overcast
7:15 AM 32.0 °F - 31.5 °F 98% 29.97 in 10.0 mi Calm Calm - N/A   Scattered Clouds
7:35 AM 32.0 °F - 31.6 °F 99% 29.97 in 7.0 mi Calm Calm - N/A   Mostly Cloudy
7:55 AM 33.1 °F 27.7 °F 32.5 °F 98% 29.97 in 7.0 mi South 5.8 mph - N/A   Mostly Cloudy
8:15 AM 34.2 °F 28.2 °F 32.7 °F 94% 29.96 in 10.0 mi South 6.9 mph - N/A   Clear
8:35 AM 35.4 °F 31.5 °F 33.6 °F 93% 29.95 in 10.0 mi SSE 4.6 mph - N/A   Clear
8:55 AM 37.2 °F 33.6 °F 35.1 °F 92% 29.95 in 10.0 mi SSE 4.6 mph - N/A   Clear
9:15 AM 38.3 °F 33.2 °F 36.0 °F 91% 29.94 in 10.0 mi South 6.9 mph - N/A   Mostly Cloudy
9:35 AM 38.3 °F 33.2 °F 36.3 °F 93% 29.93 in 10.0 mi South 6.9 mph - N/A   Overcast
9:55 AM 39.4 °F 33.8 °F 37.0 °F 91% 29.92 in 10.0 mi South 8.1 mph - N/A   Mostly Cloudy
10:15 AM 41.9 °F 36.3 °F 38.1 °F 86% 29.91 in 10.0 mi SSE 9.2 mph - N/A   Scattered Clouds
10:35 AM 44.8 °F 40.4 °F 40.3 °F 84% 29.91 in 10.0 mi South 8.1 mph - N/A   Mostly Cloudy
10:55 AM 46.6 °F - 40.1 °F 78% 29.89 in 10.0 mi South 10.4 mph - N/A   Scattered Clouds
11:15 AM 48.0 °F - 40.3 °F 75% 29.89 in 10.0 mi South 11.5 mph 16.1 mph N/A   Mostly Cloudy
11:35 AM 50.0 °F - 40.1 °F 69% 29.88 in 10.0 mi South 12.7 mph - N/A   Overcast
11:55 AM 51.3 °F - 38.7 °F 62% 29.87 in 10.0 mi South 12.7 mph 19.6 mph N/A   Overcast
12:15 PM 51.1 °F - 39.0 °F 63% 29.86 in 10.0 mi South 11.5 mph - N/A   Overcast
12:35 PM 51.3 °F - 39.0 °F 63% 29.84 in 10.0 mi South 13.8 mph 17.3 mph N/A   Overcast
12:55 PM 52.7 °F - 39.6 °F 61% 29.83 in 10.0 mi South 11.5 mph 17.3 mph N/A   Overcast
1:15 PM 53.6 °F - 39.7 °F 59% 29.80 in 10.0 mi South 11.5 mph - N/A   Overcast
1:35 PM 54.5 °F - 39.6 °F 57% 29.79 in 10.0 mi South 12.7 mph 18.4 mph N/A   Overcast
1:55 PM 56.3 °F - 40.5 °F 55% 29.77 in 10.0 mi South 12.7 mph 17.3 mph N/A   Overcast
2:15 PM 56.5 °F - 39.4 °F 53% 29.76 in 10.0 mi South 13.8 mph 20.7 mph N/A   Overcast
2:35 PM 57.6 °F - 40.5 °F 53% 29.75 in 10.0 mi South 12.7 mph - N/A   Overcast
2:55 PM 58.5 °F - 39.7 °F 50% 29.73 in 10.0 mi South 17.3 mph 24.2 mph N/A   Overcast
3:15 PM 59.5 °F - 40.6 °F 50% 29.71 in 10.0 mi South 16.1 mph 23.0 mph N/A   Overcast
3:35 PM 59.9 °F - 39.6 °F 47% 29.70 in 10.0 mi SSE 16.1 mph 25.3 mph N/A   Overcast
3:55 PM 59.9 °F - 40.1 °F 48% 29.69 in 10.0 mi South 17.3 mph 23.0 mph N/A   Overcast
4:15 PM 61.0 °F - 40.5 °F 47% 29.68 in 10.0 mi South 17.3 mph 24.2 mph N/A   Scattered Clouds
4:35 PM 61.2 °F - 41.0 °F 47% 29.67 in 10.0 mi South 17.3 mph 24.2 mph N/A   Scattered Clouds
4:55 PM 62.1 °F - 41.5 °F 47% 29.65 in 10.0 mi SSE 17.3 mph 27.6 mph N/A   Scattered Clouds
5:15 PM 63.7 °F - 43.0 °F 47% 29.65 in 10.0 mi SSE 16.1 mph 21.9 mph N/A   Clear
5:35 PM 63.5 °F - 43.7 °F 48% 29.64 in 10.0 mi SSE 17.3 mph 21.9 mph N/A   Clear
5:55 PM 62.8 °F - 43.2 °F 49% 29.63 in 10.0 mi South 17.3 mph 23.0 mph N/A   Clear
6:15 PM 63.5 °F - 44.2 °F 49% 29.62 in 10.0 mi South 19.6 mph 24.2 mph N/A   Scattered Clouds
6:35 PM 62.8 °F - 44.4 °F 51% 29.62 in 10.0 mi SSE 17.3 mph 20.7 mph N/A   Scattered Clouds
6:55 PM 61.5 °F - 45.1 °F 55% 29.61 in 10.0 mi SSE 13.8 mph 20.7 mph N/A   Mostly Cloudy
7:15 PM 60.1 °F - 45.9 °F 59% 29.61 in 10.0 mi SSE 10.4 mph - N/A   Mostly Cloudy
7:35 PM 59.2 °F - 46.4 °F 63% 29.61 in 10.0 mi SSE 9.2 mph - N/A   Mostly Cloudy
7:55 PM 59.0 °F - 46.0 °F 62% 29.59 in 10.0 mi SSE 12.7 mph - N/A   Mostly Cloudy
8:15 PM 57.9 °F - 46.4 °F 65% 29.59 in 10.0 mi SE 11.5 mph - N/A   Overcast
8:35 PM 56.8 °F - 46.0 °F 67% 29.59 in 10.0 mi ESE 16.1 mph 19.6 mph N/A   Overcast
8:55 PM 54.1 °F - 43.9 °F 68% 29.58 in 10.0 mi ESE 18.4 mph - N/A   Mostly Cloudy
9:15 PM 53.6 °F - 43.7 °F 69% 29.58 in 10.0 mi ESE 18.4 mph 25.3 mph N/A   Clear
9:35 PM 52.7 °F - 43.7 °F 71% 29.58 in 10.0 mi ESE 16.1 mph - N/A   Clear
9:55 PM 52.0 °F - 43.2 °F 72% 29.58 in 10.0 mi ESE 17.3 mph - N/A   Clear
10:15 PM 51.8 °F - 43.7 °F 74% 29.58 in 10.0 mi East 16.1 mph - N/A   Mostly Cloudy
10:35 PM 51.1 °F - 44.6 °F 78% 29.60 in 10.0 mi ESE 16.1 mph - N/A Rain , Thunderstorm Light Thunderstorms and Rain
10:55 PM 50.2 °F - 45.7 °F 85% 29.58 in 5.0 mi East 10.4 mph - 0.04 in Rain , Thunderstorm Rain
11:15 PM 49.1 °F - 47.3 °F 93% 29.59 in 4.0 mi ESE 19.6 mph 27.6 mph 0.20 in Rain , Thunderstorm Light Thunderstorms and Rain
11:35 PM 48.6 °F - 47.7 °F 97% 29.57 in 10.0 mi ESE 11.5 mph 19.6 mph 0.21 in Thunderstorm Overcast
11:55 PM 49.3 °F - 47.8 °F 95% 29.54 in 10.0 mi East 18.4 mph 21.9 mph 0.21 in   Overcast